This is the latest recevied weather packets stored in our database for station/object KD2RHT-13. If no packets are shown the sender has not sent any weather packets the latest 1 day(s).
| Time | Temp. | Humidity | Pressure | Rain* | Wind** | Luminosity | Snow |
|---|---|---|---|---|---|---|---|
| 1777987165 | 21.67° C | 62% | 1005 hPa | 0 mm | 4.02 m/s, 203° | 284 W/m² | - |
| 1777986862 | 21.67° C | 62% | 1005.3 hPa | 0 mm | 3.13 m/s, 98° | 318 W/m² | - |
| 1777986561 | 21.67° C | 63% | 1005.3 hPa | 0 mm | 1.79 m/s, 182° | 238 W/m² | - |
| 1777986259 | 21.67° C | 63% | 1005.3 hPa | 0 mm | 0.89 m/s, 117° | 550 W/m² | - |
| 1777985956 | 21.11° C | 63% | 1005.3 hPa | 0 mm | 2.68 m/s, 208° | 194 W/m² | - |
| 1777985653 | 21.11° C | 64% | 1005.3 hPa | 0 mm | 1.34 m/s, 92° | 150 W/m² | - |
| 1777985349 | 21.11° C | 64% | 1005.6 hPa | 0 mm | 2.24 m/s, 181° | 291 W/m² | - |
| 1777985046 | 21.11° C | 64% | 1005.3 hPa | 0 mm | 1.34 m/s, 224° | 189 W/m² | - |
| 1777984742 | 21.11° C | 64% | 1005.6 hPa | 0 mm | 2.24 m/s, 202° | 277 W/m² | - |
| 1777984439 | 21.11° C | 64% | 1005.6 hPa | 0 mm | 1.34 m/s, 176° | 282 W/m² | - |
| 1777984134 | 21.11° C | 65% | 1005.3 hPa | 0 mm | 2.24 m/s, 66° | 339 W/m² | - |
| 1777983832 | 20.56° C | 65% | 1005 hPa | 0 mm | 1.79 m/s, 114° | 313 W/m² | - |
| 1777983529 | 20.56° C | 66% | 1005.3 hPa | 0 mm | 0.45 m/s, 214° | 274 W/m² | - |
| 1777983226 | 20.56° C | 66% | 1005.6 hPa | 0 mm | 1.79 m/s, 195° | 251 W/m² | - |
| 1777982922 | 20.56° C | 66% | 1005.3 hPa | 0 mm | 0 m/s | 232 W/m² | - |
| 1777982618 | 20° C | 66% | 1005.3 hPa | 0 mm | 2.68 m/s, 153° | 220 W/m² | - |
| 1777982317 | 20° C | 67% | 1005.3 hPa | 0 mm | 1.34 m/s, 198° | 212 W/m² | - |
| 1777982014 | 19.44° C | 67% | 1005.3 hPa | 0 mm | 1.34 m/s, 219° | 198 W/m² | - |
| 1777981712 | 19.44° C | 68% | 1005.3 hPa | 0 mm | 2.24 m/s, 214° | 88 W/m² | - |
| 1777981408 | 19.44° C | 68% | 1005.3 hPa | 0 mm | 3.13 m/s, 184° | 79 W/m² | - |
| 1777981105 | 18.89° C | 69% | 1005.3 hPa | 0 mm | 0.89 m/s, 188° | 74 W/m² | - |
| 1777980801 | 18.89° C | 69% | 1005.3 hPa | 0 mm | 1.34 m/s, 74° | 76 W/m² | - |
| 1777980497 | 18.89° C | 69% | 1005 hPa | 0 mm | 1.34 m/s, 145° | 82 W/m² | - |
| 1777980195 | 18.89° C | 70% | 1005.3 hPa | 0 mm | 1.34 m/s, 187° | 80 W/m² | - |
| 1777979890 | 18.33° C | 71% | 1005 hPa | 0 mm | 0.45 m/s, 201° | 72 W/m² | - |
* Rain latest hour (hover to see other rain measurements)
** Current wind speed in m/s (hover to see current wind gust speed)